Location: Central Coast
(33.3208°S, 151.2336°E)
Time: 20:33:07
(UTC+11:00)

Envisat - Pass Details

Date: 08 October 2017
Orbit: 764 x 766 km, 98.2° (Epoch: 16 October)

Event Time Altitude Azimuth Distance (km) Brightness Sun altitude
Rises 21:51:03 0° 174° (S) 3,266 6.6 -33.4°
Reaches altitude 10° 21:53:25 10° 179° (S) 2,333 5.8 -33.8°
Enters shadow 21:56:09 30° 194° (SSW) 1,361 4.6 -34.3°
